Time,TemperatureF,DewpointF,PressureIn,WindDirection,WindDirectionDegrees,WindSpeedMPH,WindSpeedGustMPH,Humidity,HourlyPrecipIn,Conditions,Clouds,dailyrainin,SoftwareType,DateUTC
2013-09-14 00:01:00,49.5,48.1,29.86,NNW,339,3.0,8.0,95,0.00,,,0.02,Wunderground v.1.15,2013-09-14 08:01:00,
2013-09-14 00:07:00,49.5,48.1,29.86,NNW,334,2.0,8.0,95,0.00,,,0.02,Wunderground v.1.15,2013-09-14 08:07:00,
2013-09-14 00:13:00,49.4,48.0,29.86,NNW,335,1.0,8.0,95,0.00,,,0.02,Wunderground v.1.15,2013-09-14 08:13:00,
2013-09-14 00:18:00,49.2,47.8,29.87,NW,320,1.0,8.0,95,0.00,,,0.02,Wunderground v.1.15,2013-09-14 08:18:00,
2013-09-14 00:23:00,49.0,47.6,29.87,WNW,303,2.0,8.0,95,0.00,,,0.02,Wunderground v.1.15,2013-09-14 08:23:00,
2013-09-14 00:29:00,49.1,48.0,29.87,NNW,337,1.0,1.0,96,0.00,,,0.02,Wunderground v.1.15,2013-09-14 08:29:00,
2013-09-14 00:35:00,49.1,48.0,29.87,NNW,337,0.0,8.0,96,0.00,,,0.02,Wunderground v.1.15,2013-09-14 08:35:00,
2013-09-14 00:41:00,49.1,48.0,29.87,NNW,337,0.0,8.0,96,0.00,,,0.02,Wunderground v.1.15,2013-09-14 08:41:00,
2013-09-14 00:46:00,49.1,48.0,29.86,NNW,337,0.0,8.0,96,0.00,,,0.02,Wunderground v.1.15,2013-09-14 08:46:00,
2013-09-14 00:51:00,49.1,48.0,29.86,NNW,337,0.0,8.0,96,0.00,,,0.02,Wunderground v.1.15,2013-09-14 08:51:00,
2013-09-14 00:57:00,49.1,48.0,29.86,WNW,297,1.0,8.0,96,0.00,,,0.02,Wunderground v.1.15,2013-09-14 08:57:00,
2013-09-14 01:03:00,49.1,48.0,29.86,NW,324,4.0,6.0,96,0.00,,,0.02,Wunderground v.1.15,2013-09-14 09:03:00,
2013-09-14 01:09:00,49.1,48.0,29.86,NW,319,2.0,2.0,96,0.00,,,0.02,Wunderground v.1.15,2013-09-14 09:09:00,
2013-09-14 01:15:00,49.0,47.9,29.86,NW,319,0.0,3.0,96,0.00,,,0.02,Wunderground v.1.15,2013-09-14 09:15:00,
2013-09-14 01:21:00,48.9,47.8,29.86,NW,319,0.0,3.0,96,0.00,,,0.02,Wunderground v.1.15,2013-09-14 09:21:00,
2013-09-14 01:27:00,48.7,47.6,29.86,NW,319,0.0,3.0,96,0.00,,,0.02,Wunderground v.1.15,2013-09-14 09:27:00,
2013-09-14 01:33:00,48.6,47.5,29.86,NW,319,0.0,3.0,96,0.00,,,0.02,Wunderground v.1.15,2013-09-14 09:33:00,
2013-09-14 01:38:00,48.5,47.4,29.86,NW,319,0.0,3.0,96,0.00,,,0.02,Wunderground v.1.15,2013-09-14 09:38:00,
2013-09-14 01:44:00,48.2,47.1,29.86,NW,308,1.0,3.0,96,0.00,,,0.02,Wunderground v.1.15,2013-09-14 09:44:00,
2013-09-14 01:49:00,48.3,47.2,29.86,WNW,301,3.0,4.0,96,0.00,,,0.02,Wunderground v.1.15,2013-09-14 09:49:00,
2013-09-14 01:55:00,48.5,47.1,29.86,NW,323,4.0,4.0,95,0.00,,,0.02,Wunderground v.1.15,2013-09-14 09:55:00,
2013-09-14 02:01:00,48.6,47.0,29.86,NW,318,3.0,5.0,94,0.00,,,0.02,Wunderground v.1.15,2013-09-14 10:01:00,
2013-09-14 02:07:00,48.5,46.9,29.86,NW,315,3.0,5.0,94,0.00,,,0.02,Wunderground v.1.15,2013-09-14 10:07:00,
2013-09-14 02:13:00,48.5,46.9,29.86,NW,319,2.0,5.0,94,0.00,,,0.02,Wunderground v.1.15,2013-09-14 10:13:00,
2013-09-14 02:19:00,48.5,46.9,29.86,NW,324,1.0,1.0,94,0.00,,,0.02,Wunderground v.1.15,2013-09-14 10:19:00,
2013-09-14 02:25:00,48.4,46.8,29.86,NW,324,0.0,5.0,94,0.00,,,0.02,Wunderground v.1.15,2013-09-14 10:25:00,
2013-09-14 02:30:00,48.3,46.7,29.87,NW,325,0.0,5.0,94,0.00,,,0.02,Wunderground v.1.15,2013-09-14 10:30:00,
2013-09-14 02:36:00,48.2,46.6,29.86,NW,325,0.0,5.0,94,0.00,,,0.02,Wunderground v.1.15,2013-09-14 10:36:00,
2013-09-14 02:42:00,48.0,46.6,29.87,NW,324,0.0,5.0,95,0.00,,,0.02,Wunderground v.1.15,2013-09-14 10:42:00,
2013-09-14 02:48:00,47.8,46.4,29.87,NW,324,0.0,5.0,95,0.00,,,0.02,Wunderground v.1.15,2013-09-14 10:48:00,
2013-09-14 02:54:00,47.7,46.3,29.87,NW,324,0.0,5.0,95,0.00,,,0.02,Wunderground v.1.15,2013-09-14 10:54:00,
2013-09-14 02:59:00,47.8,46.4,29.87,NW,324,1.0,1.0,95,0.00,,,0.02,Wunderground v.1.15,2013-09-14 10:59:00,
2013-09-14 03:05:00,47.6,46.2,29.86,NW,325,2.0,2.0,95,0.00,,,0.02,Wunderground v.1.15,2013-09-14 11:05:00,
2013-09-14 03:11:00,47.6,46.2,29.87,WNW,303,1.0,3.0,95,0.00,,,0.02,Wunderground v.1.15,2013-09-14 11:11:00,
2013-09-14 03:16:00,47.7,46.3,29.86,WNW,296,2.0,5.0,95,0.00,,,0.02,Wunderground v.1.15,2013-09-14 11:16:00,
2013-09-14 03:22:00,47.8,46.4,29.86,WNW,291,3.0,3.0,95,0.00,,,0.02,Wunderground v.1.15,2013-09-14 11:22:00,
2013-09-14 03:28:00,47.9,46.5,29.86,WNW,295,3.0,5.0,95,0.00,,,0.02,Wunderground v.1.15,2013-09-14 11:28:00,
2013-09-14 03:34:00,47.6,46.0,29.86,WNW,289,5.0,5.0,94,0.00,,,0.02,Wunderground v.1.15,2013-09-14 11:34:00,
2013-09-14 03:40:00,47.8,46.4,29.85,WNW,298,5.0,6.0,95,0.00,,,0.02,Wunderground v.1.15,2013-09-14 11:40:00,
2013-09-14 03:46:00,47.7,45.8,29.85,WNW,292,6.0,7.0,93,0.00,,,0.02,Wunderground v.1.15,2013-09-14 11:46:00,
2013-09-14 03:51:00,47.5,45.3,29.85,West,280,6.0,8.0,92,0.00,,,0.03,Wunderground v.1.15,2013-09-14 11:51:00,
2013-09-14 03:57:00,47.2,45.0,29.85,WNW,299,7.0,9.0,92,0.00,,,0.03,Wunderground v.1.15,2013-09-14 11:57:00,
2013-09-14 04:02:00,46.8,44.6,29.85,NW,324,6.0,9.0,92,0.00,,,0.03,Wunderground v.1.15,2013-09-14 12:02:00,
2013-09-14 04:08:00,46.4,44.2,29.85,NW,318,2.0,9.0,92,0.00,,,0.03,Wunderground v.1.15,2013-09-14 12:08:00,
2013-09-14 04:14:00,46.4,44.2,29.86,WNW,295,2.0,9.0,92,0.00,,,0.03,Wunderground v.1.15,2013-09-14 12:14:00,
2013-09-14 04:20:00,46.0,44.1,29.85,WNW,295,1.0,3.0,93,0.00,,,0.03,Wunderground v.1.15,2013-09-14 12:20:00,
2013-09-14 04:26:00,45.9,44.0,29.86,WNW,301,1.0,9.0,93,0.00,,,0.03,Wunderground v.1.15,2013-09-14 12:26:00,
2013-09-14 04:32:00,45.8,44.2,29.85,WNW,301,0.0,9.0,94,0.00,,,0.03,Wunderground v.1.15,2013-09-14 12:32:00,
2013-09-14 04:38:00,46.1,44.7,29.85,NW,312,0.0,9.0,95,0.00,,,0.03,Wunderground v.1.15,2013-09-14 12:38:00,
2013-09-14 04:44:00,46.4,45.0,29.85,NW,312,0.0,9.0,95,0.00,,,0.03,Wunderground v.1.15,2013-09-14 12:44:00,
2013-09-14 04:49:00,46.8,45.4,29.85,NW,312,0.0,9.0,95,0.00,,,0.03,Wunderground v.1.15,2013-09-14 12:49:00,
2013-09-14 04:55:00,46.8,45.4,29.85,WNW,290,0.0,9.0,95,0.00,,,0.03,Wunderground v.1.15,2013-09-14 12:55:00,
2013-09-14 05:01:00,46.9,45.5,29.84,SW,226,0.0,2.0,95,0.00,,,0.03,Wunderground v.1.15,2013-09-14 13:01:00,
2013-09-14 05:07:00,47.1,45.5,29.84,SW,227,0.0,2.0,94,0.00,,,0.03,Wunderground v.1.15,2013-09-14 13:07:00,
2013-09-14 05:13:00,47.0,45.1,29.84,WNW,299,0.0,2.0,93,0.00,,,0.03,Wunderground v.1.15,2013-09-14 13:13:00,
2013-09-14 05:19:00,46.6,44.4,29.85,North,8,1.0,2.0,92,0.00,,,0.03,Wunderground v.1.15,2013-09-14 13:19:00,
2013-09-14 05:25:00,46.5,44.0,29.85,WNW,293,2.0,5.0,91,0.00,,,0.03,Wunderground v.1.15,2013-09-14 13:25:00,
2013-09-14 05:31:00,46.3,43.8,29.85,WNW,301,2.0,3.0,91,0.00,,,0.03,Wunderground v.1.15,2013-09-14 13:31:00,
2013-09-14 05:37:00,46.4,44.2,29.85,WNW,301,1.0,3.0,92,0.00,,,0.03,Wunderground v.1.15,2013-09-14 13:37:00,
2013-09-14 05:42:00,46.7,44.8,29.85,WNW,301,0.0,2.0,93,0.00,,,0.03,Wunderground v.1.15,2013-09-14 13:42:00,
2013-09-14 05:48:00,46.9,45.0,29.85,WNW,301,0.0,2.0,93,0.00,,,0.03,Wunderground v.1.15,2013-09-14 13:48:00,
2013-09-14 05:54:00,46.8,44.9,29.85,WNW,301,0.0,2.0,93,0.00,,,0.03,Wunderground v.1.15,2013-09-14 13:54:00,
2013-09-14 05:59:00,46.7,44.8,29.85,WNW,301,1.0,1.0,93,0.00,,,0.03,Wunderground v.1.15,2013-09-14 13:59:00,
2013-09-14 06:05:00,46.4,44.8,29.85,WNW,301,0.0,2.0,94,0.00,,,0.03,Wunderground v.1.15,2013-09-14 14:05:00,
2013-09-14 06:11:00,46.5,44.9,29.85,WNW,301,0.0,2.0,94,0.00,,,0.03,Wunderground v.1.15,2013-09-14 14:11:00,
2013-09-14 06:17:00,46.5,44.9,29.85,WNW,301,0.0,2.0,94,0.00,,,0.03,Wunderground v.1.15,2013-09-14 14:17:00,
2013-09-14 06:23:00,46.6,45.2,29.85,WNW,301,0.0,2.0,95,0.00,,,0.03,Wunderground v.1.15,2013-09-14 14:23:00,
2013-09-14 06:29:00,46.4,44.8,29.85,WNW,301,0.0,2.0,94,0.00,,,0.03,Wunderground v.1.15,2013-09-14 14:29:00,
2013-09-14 06:34:00,46.3,44.9,29.84,WNW,301,0.0,2.0,95,0.00,,,0.03,Wunderground v.1.15,2013-09-14 14:34:00,
2013-09-14 06:40:00,46.3,44.9,29.84,WNW,301,0.0,2.0,95,0.00,,,0.03,Wunderground v.1.15,2013-09-14 14:40:00,
2013-09-14 06:45:00,46.2,44.8,29.85,WNW,301,0.0,2.0,95,0.00,,,0.03,Wunderground v.1.15,2013-09-14 14:45:00,
2013-09-14 06:51:00,46.1,44.7,29.85,WNW,301,1.0,3.0,95,0.00,,,0.03,Wunderground v.1.15,2013-09-14 14:51:00,
2013-09-14 06:57:00,46.1,45.0,29.84,WNW,302,1.0,3.0,96,0.00,,,0.03,Wunderground v.1.15,2013-09-14 14:57:00,
2013-09-14 07:03:00,45.9,44.5,29.84,WNW,302,0.0,3.0,95,0.00,,,0.03,Wunderground v.1.15,2013-09-14 15:03:00,
2013-09-14 07:08:00,45.6,44.3,29.84,NW,307,1.0,3.0,95,0.00,,,0.03,Wunderground v.1.15,2013-09-14 15:08:00,
2013-09-14 07:14:00,45.4,44.1,29.84,NNW,328,1.0,3.0,95,0.00,,,0.03,Wunderground v.1.15,2013-09-14 15:14:00,
2013-09-14 07:20:00,45.5,44.2,29.84,NE,34,0.0,3.0,95,0.00,,,0.03,Wunderground v.1.15,2013-09-14 15:20:00,
2013-09-14 07:25:00,45.6,44.3,29.84,NNW,329,0.0,3.0,95,0.00,,,0.03,Wunderground v.1.15,2013-09-14 15:25:00,
2013-09-14 07:30:00,45.6,44.3,29.84,NNW,330,0.0,3.0,95,0.00,,,0.03,Wunderground v.1.15,2013-09-14 15:30:00,
2013-09-14 07:36:00,45.6,44.3,29.84,ENE,57,0.0,3.0,95,0.00,,,0.03,Wunderground v.1.15,2013-09-14 15:36:00,
2013-09-14 07:41:00,45.4,44.1,29.84,North,4,0.0,3.0,95,0.00,,,0.03,Wunderground v.1.15,2013-09-14 15:41:00,
2013-09-14 07:46:00,45.3,44.0,29.84,NW,323,1.0,3.0,95,0.00,,,0.03,Wunderground v.1.15,2013-09-14 15:46:00,
2013-09-14 07:51:00,45.3,44.0,29.84,NNW,332,1.0,3.0,95,0.00,,,0.03,Wunderground v.1.15,2013-09-14 15:51:00,
2013-09-14 07:57:00,45.2,43.9,29.84,NW,326,1.0,3.0,95,0.00,,,0.03,Wunderground v.1.15,2013-09-14 15:57:00,
2013-09-14 08:02:00,45.1,43.8,29.84,North,350,1.0,3.0,95,0.00,,,0.03,Wunderground v.1.15,2013-09-14 16:02:00,
2013-09-14 08:07:00,45.1,43.8,29.85,NNW,332,1.0,3.0,95,0.00,,,0.03,Wunderground v.1.15,2013-09-14 16:07:00,
2013-09-14 08:13:00,45.2,43.9,29.85,ENE,58,0.0,3.0,95,0.00,,,0.03,Wunderground v.1.15,2013-09-14 16:13:00,
2013-09-14 08:19:00,45.3,44.0,29.84,NW,316,1.0,3.0,95,0.00,,,0.03,Wunderground v.1.15,2013-09-14 16:19:00,
2013-09-14 08:24:00,45.2,43.9,29.84,NW,309,1.0,3.0,95,0.00,,,0.03,Wunderground v.1.15,2013-09-14 16:24:00,
2013-09-14 08:30:00,45.3,44.0,29.84,NW,309,1.0,3.0,95,0.00,,,0.03,Wunderground v.1.15,2013-09-14 16:30:00,
2013-09-14 08:36:00,45.4,44.1,29.85,North,354,0.0,3.0,95,0.00,,,0.03,Wunderground v.1.15,2013-09-14 16:36:00,
2013-09-14 08:42:00,45.5,44.2,29.85,NNW,331,0.0,3.0,95,0.00,,,0.03,Wunderground v.1.15,2013-09-14 16:42:00,
2013-09-14 08:48:00,45.6,44.3,29.85,NW,321,1.0,3.0,95,0.00,,,0.03,Wunderground v.1.15,2013-09-14 16:48:00,
2013-09-14 08:53:00,45.6,44.3,29.85,North,359,0.0,3.0,95,0.00,,,0.03,Wunderground v.1.15,2013-09-14 16:53:00,
2013-09-14 08:59:00,45.8,44.4,29.85,NNE,21,0.0,3.0,95,0.00,,,0.03,Wunderground v.1.15,2013-09-14 16:59:00,
2013-09-14 09:05:00,45.8,44.4,29.85,North,354,1.0,3.0,95,0.00,,,0.03,Wunderground v.1.15,2013-09-14 17:05:00,
2013-09-14 09:11:00,45.8,44.4,29.85,North,359,1.0,3.0,95,0.00,,,0.03,Wunderground v.1.15,2013-09-14 17:11:00,
2013-09-14 09:16:00,45.9,44.8,29.85,North,359,1.0,3.0,96,0.00,,,0.03,Wunderground v.1.15,2013-09-14 17:16:00,
2013-09-14 09:22:00,46.0,44.9,29.85,NNW,346,1.0,3.0,96,0.00,,,0.03,Wunderground v.1.15,2013-09-14 17:22:00,
2013-09-14 09:28:00,46.1,44.7,29.85,North,4,1.0,3.0,95,0.00,,,0.03,Wunderground v.1.15,2013-09-14 17:28:00,
2013-09-14 09:34:00,46.3,44.9,29.86,NE,39,1.0,3.0,95,0.00,,,0.03,Wunderground v.1.15,2013-09-14 17:34:00,
2013-09-14 09:39:00,46.4,45.0,29.86,NNE,25,1.0,1.0,95,0.00,,,0.03,Wunderground v.1.15,2013-09-14 17:39:00,
2013-09-14 09:44:00,46.5,44.9,29.86,NE,52,1.0,5.0,94,0.00,,,0.03,Wunderground v.1.15,2013-09-14 17:44:00,
2013-09-14 09:50:00,46.4,45.0,29.87,NW,326,2.0,2.0,95,0.00,,,0.03,Wunderground v.1.15,2013-09-14 17:50:00,
2013-09-14 09:56:00,46.3,44.9,29.86,NNE,20,2.0,5.0,95,0.00,,,0.03,Wunderground v.1.15,2013-09-14 17:56:00,
2013-09-14 10:02:00,46.5,45.4,29.86,NNE,21,1.0,9.0,96,0.00,,,0.03,Wunderground v.1.15,2013-09-14 18:02:00,
2013-09-14 10:07:00,46.7,45.6,29.86,North,8,1.0,9.0,96,0.00,,,0.03,Wunderground v.1.15,2013-09-14 18:07:00,
2013-09-14 10:12:00,46.8,45.4,29.86,North,354,0.0,9.0,95,0.00,,,0.03,Wunderground v.1.15,2013-09-14 18:12:00,
2013-09-14 10:18:00,46.8,45.4,29.86,North,354,0.0,9.0,95,0.00,,,0.03,Wunderground v.1.15,2013-09-14 18:18:00,
2013-09-14 10:23:00,46.9,45.5,29.86,North,354,0.0,9.0,95,0.00,,,0.03,Wunderground v.1.15,2013-09-14 18:23:00,
2013-09-14 10:29:00,47.0,45.6,29.86,North,354,0.0,9.0,95,0.00,,,0.03,Wunderground v.1.15,2013-09-14 18:29:00,
2013-09-14 10:35:00,47.0,45.6,29.86,North,354,0.0,9.0,95,0.00,,,0.03,Wunderground v.1.15,2013-09-14 18:35:00,
2013-09-14 10:41:00,47.0,45.6,29.86,North,354,0.0,9.0,95,0.00,,,0.03,Wunderground v.1.15,2013-09-14 18:41:00,
2013-09-14 10:46:00,47.2,45.8,29.86,North,354,0.0,9.0,95,0.00,,,0.03,Wunderground v.1.15,2013-09-14 18:46:00,
2013-09-14 10:52:00,47.4,46.0,29.86,North,354,0.0,9.0,95,0.00,,,0.03,Wunderground v.1.15,2013-09-14 18:52:00,
2013-09-14 10:57:00,47.6,46.2,29.86,North,354,0.0,9.0,95,0.00,,,0.03,Wunderground v.1.15,2013-09-14 18:57:00,
2013-09-14 11:03:00,47.8,46.2,29.86,North,354,0.0,0.0,94,0.00,,,0.03,Wunderground v.1.15,2013-09-14 19:03:00,
2013-09-14 11:09:00,48.0,46.4,29.86,North,354,0.0,0.0,94,0.00,,,0.03,Wunderground v.1.15,2013-09-14 19:09:00,
2013-09-14 11:15:00,48.2,46.3,29.86,North,354,0.0,0.0,93,0.00,,,0.03,Wunderground v.1.15,2013-09-14 19:15:00,
2013-09-14 11:20:00,48.6,46.7,29.86,North,354,0.0,0.0,93,0.00,,,0.03,Wunderground v.1.15,2013-09-14 19:20:00,
2013-09-14 11:26:00,49.3,47.4,29.86,ENE,62,1.0,3.0,93,0.00,,,0.03,Wunderground v.1.15,2013-09-14 19:26:00,
2013-09-14 11:31:00,50.1,47.9,29.86,ENE,70,1.0,1.0,92,0.00,,,0.03,Wunderground v.1.15,2013-09-14 19:31:00,
2013-09-14 11:36:00,51.0,48.8,29.86,East,84,1.0,2.0,92,0.00,,,0.03,Wunderground v.1.15,2013-09-14 19:36:00,
2013-09-14 11:42:00,51.5,49.3,29.86,East,97,1.0,1.0,92,0.00,,,0.03,Wunderground v.1.15,2013-09-14 19:42:00,
2013-09-14 11:48:00,51.2,48.7,29.86,ESE,120,1.0,1.0,91,0.00,,,0.03,Wunderground v.1.15,2013-09-14 19:48:00,
2013-09-14 11:54:00,50.8,48.3,29.85,ESE,120,0.0,0.0,91,0.00,,,0.03,Wunderground v.1.15,2013-09-14 19:54:00,
2013-09-14 11:59:00,50.5,48.3,29.86,East,86,0.0,2.0,92,0.00,,,0.03,Wunderground v.1.15,2013-09-14 19:59:00,
2013-09-14 12:05:00,50.1,48.2,29.86,East,84,0.0,2.0,93,0.00,,,0.03,Wunderground v.1.15,2013-09-14 20:05:00,
2013-09-14 12:11:00,50.0,48.1,29.86,East,84,0.0,2.0,93,0.00,,,0.03,Wunderground v.1.15,2013-09-14 20:11:00,
2013-09-14 12:17:00,50.1,48.4,29.86,East,84,0.0,2.0,94,0.00,,,0.03,Wunderground v.1.15,2013-09-14 20:17:00,
2013-09-14 12:23:00,50.2,48.5,29.86,East,87,0.0,2.0,94,0.00,,,0.03,Wunderground v.1.15,2013-09-14 20:23:00,
2013-09-14 12:29:00,50.0,48.1,29.86,East,93,0.0,2.0,93,0.00,,,0.03,Wunderground v.1.15,2013-09-14 20:29:00,
2013-09-14 12:35:00,50.0,48.3,29.86,ENE,65,0.0,2.0,94,0.00,,,0.00,Wunderground v.1.15,2013-09-14 20:35:00,
2013-09-14 12:41:00,49.6,47.9,29.86,ENE,75,1.0,2.0,94,0.00,,,0.00,Wunderground v.1.15,2013-09-14 20:41:00,
2013-09-14 12:47:00,49.6,48.2,29.86,ENE,77,0.0,2.0,95,0.00,,,0.00,Wunderground v.1.15,2013-09-14 20:47:00,
2013-09-14 12:53:00,49.7,48.3,29.86,ENE,77,0.0,2.0,95,0.00,,,0.00,Wunderground v.1.15,2013-09-14 20:53:00,
2013-09-14 12:59:00,49.8,48.4,29.86,NE,44,1.0,1.0,95,0.00,,,0.00,Wunderground v.1.15,2013-09-14 20:59:00,
2013-09-14 13:05:00,49.8,48.1,29.86,NNE,32,1.0,2.0,94,0.00,,,0.00,Wunderground v.1.15,2013-09-14 21:05:00,
2013-09-14 13:11:00,49.9,48.0,29.86,ENE,60,2.0,5.0,93,0.00,,,0.00,Wunderground v.1.15,2013-09-14 21:11:00,
2013-09-14 13:17:00,50.0,48.1,29.86,North,354,3.0,5.0,93,0.00,,,0.00,Wunderground v.1.15,2013-09-14 21:17:00,
2013-09-14 13:22:00,50.3,48.4,29.86,NE,50,1.0,2.0,93,0.00,,,0.00,Wunderground v.1.15,2013-09-14 21:22:00,
2013-09-14 13:28:00,50.7,48.5,29.86,ENE,66,1.0,2.0,92,0.00,,,0.00,Wunderground v.1.15,2013-09-14 21:28:00,
2013-09-14 13:34:00,50.7,48.2,29.86,ENE,78,2.0,3.0,91,0.00,,,0.00,Wunderground v.1.15,2013-09-14 21:34:00,
2013-09-14 13:40:00,50.5,48.3,29.86,East,99,3.0,3.0,92,0.00,,,0.00,Wunderground v.1.15,2013-09-14 21:40:00,
2013-09-14 13:46:00,50.6,48.4,29.85,East,97,2.0,3.0,92,0.00,,,0.00,Wunderground v.1.15,2013-09-14 21:46:00,
2013-09-14 13:52:00,50.7,48.2,29.85,NE,37,1.0,5.0,91,0.00,,,0.00,Wunderground v.1.15,2013-09-14 21:52:00,
2013-09-14 13:58:00,50.8,48.0,29.85,ENE,74,2.0,5.0,90,0.00,,,0.00,Wunderground v.1.15,2013-09-14 21:58:00,
2013-09-14 14:04:00,50.9,48.1,29.85,NE,40,2.0,6.0,90,0.00,,,0.00,Wunderground v.1.15,2013-09-14 22:04:00,
2013-09-14 14:10:00,51.0,48.2,29.85,ENE,72,2.0,6.0,90,0.00,,,0.00,Wunderground v.1.15,2013-09-14 22:10:00,
2013-09-14 14:16:00,51.2,48.7,29.85,ENE,75,3.0,6.0,91,0.00,,,0.00,Wunderground v.1.15,2013-09-14 22:16:00,
2013-09-14 14:22:00,51.0,48.2,29.85,ESE,106,3.0,6.0,90,0.00,,,0.00,Wunderground v.1.15,2013-09-14 22:22:00,
2013-09-14 14:28:00,51.4,48.6,29.85,ENE,68,3.0,6.0,90,0.00,,,0.00,Wunderground v.1.15,2013-09-14 22:28:00,
2013-09-14 14:33:00,51.6,48.5,29.86,ENE,70,3.0,6.0,89,0.00,,,0.00,Wunderground v.1.15,2013-09-14 22:33:00,
2013-09-14 14:38:00,51.5,48.4,29.86,East,83,3.0,6.0,89,0.00,,,0.00,Wunderground v.1.15,2013-09-14 22:38:00,
2013-09-14 14:44:00,51.3,48.5,29.86,NE,48,3.0,6.0,90,0.00,,,0.00,Wunderground v.1.15,2013-09-14 22:44:00,
2013-09-14 14:50:00,51.4,48.6,29.86,ENE,69,2.0,6.0,90,0.00,,,0.00,Wunderground v.1.15,2013-09-14 22:50:00,
2013-09-14 14:54:00,51.4,48.6,29.86,East,87,1.0,6.0,90,0.00,,,0.00,Wunderground v.1.15,2013-09-14 22:54:00,
2013-09-14 14:59:00,51.3,48.5,29.86,ENE,66,1.0,4.0,90,0.00,,,0.00,Wunderground v.1.15,2013-09-14 22:59:00,
2013-09-14 15:05:00,51.4,48.9,29.86,ENE,70,1.0,4.0,91,0.00,,,0.00,Wunderground v.1.15,2013-09-14 23:05:00,
2013-09-14 15:11:00,51.6,48.8,29.86,NNE,28,1.0,4.0,90,0.00,,,0.00,Wunderground v.1.15,2013-09-14 23:11:00,
2013-09-14 15:16:00,52.0,48.9,29.86,NE,42,1.0,4.0,89,0.00,,,0.00,Wunderground v.1.15,2013-09-14 23:16:00,
2013-09-14 15:22:00,52.3,48.5,29.86,NNE,33,1.0,4.0,87,0.00,,,0.00,Wunderground v.1.15,2013-09-14 23:22:00,
2013-09-14 15:28:00,52.5,49.0,29.86,NE,38,1.0,4.0,88,0.00,,,0.00,Wunderground v.1.15,2013-09-14 23:28:00,
2013-09-14 15:34:00,52.8,49.6,29.86,ENE,66,1.0,4.0,89,0.00,,,0.00,Wunderground v.1.15,2013-09-14 23:34:00,
2013-09-14 15:39:00,52.4,48.9,29.86,ENE,61,2.0,2.0,88,0.00,,,0.00,Wunderground v.1.15,2013-09-14 23:39:00,
2013-09-14 15:44:00,52.3,49.5,29.87,ENE,61,1.0,4.0,90,0.00,,,0.00,Wunderground v.1.15,2013-09-14 23:44:00,
2013-09-14 15:50:00,52.4,48.9,29.86,NNE,28,0.0,4.0,88,0.00,,,0.00,Wunderground v.1.15,2013-09-14 23:50:00,
2013-09-14 15:56:00,52.7,48.9,29.86,ENE,77,1.0,4.0,87,0.00,,,0.00,Wunderground v.1.15,2013-09-14 23:56:00,
2013-09-14 16:01:00,52.7,49.5,29.86,NE,50,2.0,3.0,89,0.00,,,0.00,Wunderground v.1.15,2013-09-15 00:01:00,
2013-09-14 16:07:00,52.6,49.1,29.86,NNE,28,2.0,3.0,88,0.00,,,0.00,Wunderground v.1.15,2013-09-15 00:07:00,
2013-09-14 16:13:00,52.4,48.9,29.86,ENE,63,1.0,3.0,88,0.00,,,0.00,Wunderground v.1.15,2013-09-15 00:13:00,
2013-09-14 16:19:00,52.4,48.9,29.86,ENE,68,1.0,1.0,88,0.00,,,0.00,Wunderground v.1.15,2013-09-15 00:19:00,
2013-09-14 16:24:00,52.5,49.4,29.86,ENE,73,1.0,3.0,89,0.00,,,0.00,Wunderground v.1.15,2013-09-15 00:24:00,
2013-09-14 16:29:00,52.8,49.3,29.86,NE,41,2.0,3.0,88,0.00,,,0.00,Wunderground v.1.15,2013-09-15 00:29:00,
2013-09-14 16:35:00,53.3,49.5,29.86,NE,50,2.0,3.0,87,0.00,,,0.00,Wunderground v.1.15,2013-09-15 00:35:00,
2013-09-14 16:40:00,53.4,49.3,29.86,NE,53,1.0,3.0,86,0.00,,,0.00,Wunderground v.1.15,2013-09-15 00:40:00,
2013-09-14 16:45:00,53.4,49.3,29.86,ENE,63,1.0,3.0,86,0.00,,,0.00,Wunderground v.1.15,2013-09-15 00:45:00,
2013-09-14 16:51:00,53.2,49.1,29.86,NE,56,2.0,3.0,86,0.00,,,0.00,Wunderground v.1.15,2013-09-15 00:51:00,
2013-09-14 16:56:00,53.1,49.6,29.86,ENE,64,2.0,3.0,88,0.00,,,0.00,Wunderground v.1.15,2013-09-15 00:56:00,
2013-09-14 17:02:00,52.9,49.4,29.86,ENE,73,2.0,5.0,88,0.00,,,0.00,Wunderground v.1.15,2013-09-15 01:02:00,
2013-09-14 17:07:00,52.6,49.1,29.86,ENE,68,2.0,5.0,88,0.00,,,0.00,Wunderground v.1.15,2013-09-15 01:07:00,
2013-09-14 17:13:00,52.7,49.2,29.85,ENE,70,1.0,5.0,88,0.00,,,0.00,Wunderground v.1.15,2013-09-15 01:13:00,
2013-09-14 17:18:00,53.0,49.8,29.85,ENE,70,0.0,5.0,89,0.00,,,0.00,Wunderground v.1.15,2013-09-15 01:18:00,
2013-09-14 17:24:00,53.4,50.2,29.85,ENE,70,0.0,5.0,89,0.00,,,0.00,Wunderground v.1.15,2013-09-15 01:24:00,
2013-09-14 17:29:00,53.5,50.0,29.85,ENE,70,0.0,5.0,88,0.00,,,0.00,Wunderground v.1.15,2013-09-15 01:29:00,
2013-09-14 17:35:00,53.5,50.0,29.85,ENE,76,0.0,5.0,88,0.00,,,0.00,Wunderground v.1.15,2013-09-15 01:35:00,
2013-09-14 17:41:00,53.2,49.7,29.85,ENE,73,0.0,5.0,88,0.00,,,0.00,Wunderground v.1.15,2013-09-15 01:41:00,
2013-09-14 17:47:00,52.8,49.3,29.85,SSE,152,0.0,5.0,88,0.00,,,0.00,Wunderground v.1.15,2013-09-15 01:47:00,
2013-09-14 17:53:00,52.7,49.2,29.85,SSE,152,0.0,5.0,88,0.00,,,0.00,Wunderground v.1.15,2013-09-15 01:53:00,
2013-09-14 17:59:00,52.8,49.0,29.85,South,170,0.0,0.0,87,0.00,,,0.00,Wunderground v.1.15,2013-09-15 01:59:00,
2013-09-14 18:05:00,52.8,48.7,29.85,SSW,192,0.0,0.0,86,0.00,,,0.00,Wunderground v.1.15,2013-09-15 02:05:00,
2013-09-14 18:10:00,52.9,49.1,29.85,SSW,192,0.0,0.0,87,0.00,,,0.00,Wunderground v.1.15,2013-09-15 02:10:00,
2013-09-14 18:15:00,53.2,49.4,29.86,SSW,192,0.0,0.0,87,0.00,,,0.00,Wunderground v.1.15,2013-09-15 02:15:00,
2013-09-14 18:21:00,53.9,49.8,29.85,South,191,0.0,0.0,86,0.00,,,0.00,Wunderground v.1.15,2013-09-15 02:21:00,
2013-09-14 18:26:00,54.1,48.7,29.86,SSW,192,0.0,0.0,82,0.00,,,0.00,Wunderground v.1.15,2013-09-15 02:26:00,
2013-09-14 18:32:00,54.8,49.4,29.86,SSW,192,0.0,0.0,82,0.00,,,0.00,Wunderground v.1.15,2013-09-15 02:32:00,
2013-09-14 18:38:00,55.1,48.7,29.86,SSW,192,0.0,0.0,79,0.00,,,0.00,Wunderground v.1.15,2013-09-15 02:38:00,
2013-09-14 18:44:00,55.0,48.3,29.85,South,191,0.0,0.0,78,0.00,,,0.00,Wunderground v.1.15,2013-09-15 02:44:00,
2013-09-14 18:50:00,54.8,48.4,29.85,SSW,192,0.0,0.0,79,0.00,,,0.00,Wunderground v.1.15,2013-09-15 02:50:00,
2013-09-14 18:56:00,54.7,49.3,29.85,SSW,192,0.0,0.0,82,0.00,,,0.00,Wunderground v.1.15,2013-09-15 02:56:00,
2013-09-14 19:02:00,54.5,48.1,29.85,South,191,0.0,1.0,79,0.00,,,0.00,Wunderground v.1.15,2013-09-15 03:02:00,
2013-09-14 19:08:00,54.2,48.5,29.85,South,191,0.0,1.0,81,0.00,,,0.00,Wunderground v.1.15,2013-09-15 03:08:00,
2013-09-14 19:14:00,54.0,48.6,29.85,South,191,0.0,0.0,82,0.00,,,0.00,Wunderground v.1.15,2013-09-15 03:14:00,
2013-09-14 19:19:00,53.9,48.5,29.85,South,191,0.0,0.0,82,0.00,,,0.00,Wunderground v.1.15,2013-09-15 03:19:00,
2013-09-14 19:25:00,54.1,48.7,29.85,SSW,192,0.0,0.0,82,0.00,,,0.00,Wunderground v.1.15,2013-09-15 03:25:00,
2013-09-14 19:31:00,54.2,48.8,29.85,South,191,0.0,0.0,82,0.00,,,0.00,Wunderground v.1.15,2013-09-15 03:31:00,
2013-09-14 19:37:00,54.3,48.9,29.85,South,191,0.0,0.0,82,0.00,,,0.00,Wunderground v.1.15,2013-09-15 03:37:00,
2013-09-14 19:43:00,54.1,48.7,29.86,SSW,192,0.0,0.0,82,0.00,,,0.00,Wunderground v.1.15,2013-09-15 03:43:00,
2013-09-14 19:49:00,53.7,48.0,29.85,SSW,192,0.0,0.0,81,0.00,,,0.00,Wunderground v.1.15,2013-09-15 03:49:00,
2013-09-14 19:55:00,53.4,48.4,29.85,SSW,192,0.0,0.0,83,0.00,,,0.00,Wunderground v.1.15,2013-09-15 03:55:00,
2013-09-14 20:01:00,53.1,47.7,29.85,South,191,0.0,0.0,82,0.00,,,0.00,Wunderground v.1.15,2013-09-15 04:01:00,
2013-09-14 20:02:00,53.0,47.7,29.85,South,191,0.0,0.0,82,0.00,,,0.00,Wunderground v.1.15,2013-09-15 04:02:00,
2013-09-14 20:03:00,53.0,47.7,29.86,SSW,192,0.0,0.0,82,0.00,,,0.00,Wunderground v.1.15,2013-09-15 04:03:00,
2013-09-14 20:06:00,52.8,47.5,29.85,SSW,193,0.0,1.0,82,0.00,,,0.00,Wunderground v.1.15,2013-09-15 04:06:00,
2013-09-14 20:07:00,52.8,47.5,29.85,SSW,200,0.0,1.0,82,0.00,,,0.00,Wunderground v.1.15,2013-09-15 04:07:00,
2013-09-14 20:13:00,52.6,47.6,29.86,SSW,202,0.0,0.0,83,0.00,,,0.00,Wunderground v.1.15,2013-09-15 04:13:00,
2013-09-14 20:19:00,52.4,47.4,29.86,SW,223,0.0,0.0,83,0.00,,,0.00,Wunderground v.1.15,2013-09-15 04:19:00,
2013-09-14 20:25:00,52.2,47.2,29.86,SW,223,0.0,0.0,83,0.00,,,0.00,Wunderground v.1.15,2013-09-15 04:25:00,
2013-09-14 20:31:00,52.2,47.2,29.86,SW,223,0.0,0.0,83,0.00,,,0.00,Wunderground v.1.15,2013-09-15 04:31:00,
2013-09-14 20:37:00,52.2,47.5,29.86,SW,223,0.0,1.0,84,0.00,,,0.00,Wunderground v.1.15,2013-09-15 04:37:00,
2013-09-14 20:43:00,52.0,47.3,29.86,West,280,1.0,4.0,84,0.00,,,0.00,Wunderground v.1.15,2013-09-15 04:43:00,
2013-09-14 20:49:00,51.7,47.0,29.86,West,280,1.0,1.0,84,0.00,,,0.00,Wunderground v.1.15,2013-09-15 04:49:00,
2013-09-14 20:54:00,51.7,47.0,29.86,West,281,0.0,1.0,84,0.00,,,0.00,Wunderground v.1.15,2013-09-15 04:54:00,
2013-09-14 20:59:00,51.6,46.9,29.86,West,281,0.0,2.0,84,0.00,,,0.00,Wunderground v.1.15,2013-09-15 04:59:00,
2013-09-14 21:05:00,51.7,47.0,29.86,West,280,0.0,2.0,84,0.00,,,0.00,Wunderground v.1.15,2013-09-15 05:05:00,
2013-09-14 21:11:00,51.9,47.2,29.87,West,280,1.0,2.0,84,0.00,,,0.00,Wunderground v.1.15,2013-09-15 05:11:00,
2013-09-14 21:17:00,51.7,47.0,29.87,West,281,2.0,4.0,84,0.00,,,0.00,Wunderground v.1.15,2013-09-15 05:17:00,
2013-09-14 21:23:00,51.6,46.9,29.87,WNW,291,3.0,4.0,84,0.00,,,0.00,Wunderground v.1.15,2013-09-15 05:23:00,
2013-09-14 21:28:00,51.5,47.1,29.87,WNW,293,4.0,9.0,85,0.00,,,0.00,Wunderground v.1.15,2013-09-15 05:28:00,
2013-09-14 21:34:00,51.4,47.0,29.87,WNW,296,5.0,8.0,85,0.00,,,0.00,Wunderground v.1.15,2013-09-15 05:34:00,
2013-09-14 21:40:00,51.3,47.3,29.87,WNW,289,5.0,5.0,86,0.00,,,0.00,Wunderground v.1.15,2013-09-15 05:40:00,
2013-09-14 21:46:00,50.8,46.8,29.87,WNW,295,3.0,5.0,86,0.00,,,0.00,Wunderground v.1.15,2013-09-15 05:46:00,
2013-09-14 21:51:00,50.8,46.8,29.87,WNW,294,1.0,2.0,86,0.00,,,0.00,Wunderground v.1.15,2013-09-15 05:51:00,
2013-09-14 21:57:00,51.1,46.4,29.87,WNW,295,0.0,2.0,84,0.00,,,0.00,Wunderground v.1.15,2013-09-15 05:57:00,
2013-09-14 22:03:00,51.0,46.3,29.87,WNW,295,2.0,3.0,84,0.00,,,0.00,Wunderground v.1.15,2013-09-15 06:03:00,
2013-09-14 22:09:00,50.9,46.2,29.87,WNW,294,2.0,3.0,84,0.00,,,0.00,Wunderground v.1.15,2013-09-15 06:09:00,
2013-09-14 22:14:00,50.9,45.9,29.87,WNW,295,2.0,3.0,83,0.00,,,0.00,Wunderground v.1.15,2013-09-15 06:14:00,
2013-09-14 22:20:00,51.1,45.8,29.87,WNW,294,1.0,2.0,82,0.00,,,0.00,Wunderground v.1.15,2013-09-15 06:20:00,
2013-09-14 22:25:00,51.3,45.7,29.87,WNW,295,0.0,2.0,81,0.00,,,0.00,Wunderground v.1.15,2013-09-15 06:25:00,
2013-09-14 22:31:00,51.4,46.1,29.87,WNW,295,0.0,2.0,82,0.00,,,0.00,Wunderground v.1.15,2013-09-15 06:31:00,
2013-09-14 22:36:00,51.3,45.7,29.87,WNW,294,0.0,2.0,81,0.00,,,0.00,Wunderground v.1.15,2013-09-15 06:36:00,
2013-09-14 22:41:00,51.4,45.8,29.87,WNW,294,0.0,2.0,81,0.00,,,0.00,Wunderground v.1.15,2013-09-15 06:41:00,
2013-09-14 22:47:00,51.4,45.8,29.87,WNW,295,0.0,2.0,81,0.00,,,0.00,Wunderground v.1.15,2013-09-15 06:47:00,
2013-09-14 22:53:00,51.3,45.7,29.87,WNW,294,0.0,3.0,81,0.00,,,0.00,Wunderground v.1.15,2013-09-15 06:53:00,
2013-09-14 22:58:00,51.3,45.7,29.87,WNW,295,2.0,3.0,81,0.00,,,0.00,Wunderground v.1.15,2013-09-15 06:58:00,
2013-09-14 23:03:00,51.4,46.4,29.87,WNW,294,2.0,4.0,83,0.00,,,0.00,Wunderground v.1.15,2013-09-15 07:03:00,
2013-09-14 23:08:00,51.5,46.5,29.87,WNW,295,1.0,4.0,83,0.00,,,0.00,Wunderground v.1.15,2013-09-15 07:08:00,
2013-09-14 23:14:00,51.8,46.5,29.87,WNW,295,0.0,4.0,82,0.00,,,0.00,Wunderground v.1.15,2013-09-15 07:14:00,
2013-09-14 23:20:00,51.9,46.6,29.87,WNW,295,0.0,4.0,82,0.00,,,0.00,Wunderground v.1.15,2013-09-15 07:20:00,
2013-09-14 23:26:00,51.6,46.3,29.87,WNW,295,0.0,4.0,82,0.00,,,0.00,Wunderground v.1.15,2013-09-15 07:26:00,
2013-09-14 23:31:00,51.2,45.6,29.88,WNW,295,0.0,4.0,81,0.00,,,0.00,Wunderground v.1.15,2013-09-15 07:31:00,
2013-09-14 23:37:00,51.5,45.5,29.88,WNW,295,0.0,4.0,80,0.00,,,0.00,Wunderground v.1.15,2013-09-15 07:37:00,
2013-09-14 23:43:00,51.8,44.8,29.87,WNW,285,2.0,5.0,77,0.00,,,0.00,Wunderground v.1.15,2013-09-15 07:43:00,
2013-09-14 23:48:00,52.0,44.7,29.87,WNW,293,3.0,5.0,76,0.00,,,0.00,Wunderground v.1.15,2013-09-15 07:48:00,
2013-09-14 23:54:00,51.4,44.4,29.88,NW,308,3.0,4.0,77,0.00,,,0.00,Wunderground v.1.15,2013-09-15 07:54:00,
2013-09-14 23:59:00,50.9,44.3,29.87,NW,314,3.0,6.0,78,0.00,,,0.00,Wunderground v.1.15,2013-09-15 07:59:00,